This demonstration page uses our WeatherBlox Daily Observations layout. Learn more.

Left ArrowRight Arrow

39.29038, -76.61219

Hourly Observations for December 12, 2020

Temp ( °F °C ) Dew Point ( °F °C ) Humidity (%) Winds ( mph kmh ) Pressure ( in mb ) Visibility ( mi km ) Precip ( " mm )
12:54 am 00:54 Mostly Clear 38 3.3 35 1.7 89 89 Calm 30.10 1019 7 11 0.00 0.00
1:54 am 01:54 Mostly Clear 38 3.3 35 1.7 89 89 Calm 30.09 1019 8 13 0.00 0.00
2:54 am 02:54 Mostly Clear 38 3.3 35 1.7 89 89 Calm 30.09 1019 7 11 0.00 0.00
3:54 am 03:54 Mostly Cloudy with Mist and Fog 37 2.8 35 1.7 93 93 Calm 30.09 1019 6 10 0.00 0.00
4:12 am 04:12 Mostly Cloudy with Mist and Fog 37 2.8 35 1.7 93 93 Calm 30.10 1019 5 8 0.00 0.00
4:42 am 04:42 Mostly Cloudy with Mist and Fog 36 2.2 33 0.6 89 89 W 3 6 30.11 1020 5 8 0.00 0.00
4:52 am 04:52 Cloudy with Mist and Fog 36 2 34 1 93 93 Calm 30.10 1019 2 3 0.00 0.00
4:54 am 04:54 Cloudy with Mist and Fog 37 2.8 35 1.7 93 93 Calm 30.09 1019 2 2 0.00 0.00
5:03 am 05:03 Cloudy with Fog 37 2.8 35 1.7 93 93 Calm 30.10 1019 1 1 0.00 0.00
5:21 am 05:21 Mostly Cloudy with Fog 38 3.3 36 2.2 93 93 Calm 30.10 1019 1 2 0.00 0.00
5:54 am 05:54 Mostly Cloudy with Fog 40 4.4 39 3.9 97 97 Calm 30.09 1019 1 2 0.00 0.00
6:04 am 06:04 Mostly Cloudy with Fog 40 4.4 38 3.3 93 93 Calm 30.10 1019 0 0 0.00 0.00
6:35 am 06:35 Mostly Cloudy with Fog 41 5 39 3.9 93 93 Calm 30.10 1019 1 2 0.00 0.00
6:54 am 06:54 Mostly Cloudy with Fog 42 5.6 41 5 96 96 Calm 30.09 1019 1 2 0.00 0.00
7:54 am 07:54 Mostly Cloudy with Fog 44 6.7 42 5.6 93 93 E 3 6 30.09 1019 1 2 0.00 0.00
8:54 am 08:54 Cloudy with Fog 45 7.2 44 6.7 97 97 Calm 30.07 1018 1 2 0.00 0.00
9:48 am 09:48 Mostly Cloudy with Fog 48 9 46 8 94 94 Calm 30.07 1018 0 0 0.00 0.00
9:54 am 09:54 Mostly Cloudy with Fog 48 8.9 47 8.3 96 96 Calm 30.06 1018 0 0 0.00 0.00
10:06 am 10:06 Cloudy with Fog 49 9.4 47 8.3 93 93 Calm 30.07 1018 1 1 0.00 0.00
10:35 am 10:35 Cloudy with Mist and Fog 50 10 48 8.9 93 93 Calm 30.05 1018 1 2 0.00 0.00
10:54 am 10:54 Cloudy with Mist and Fog 50 10 49 9.4 96 96 Calm 30.04 1017 2 2 0.00 0.00
11:38 am 11:38 Cloudy with Mist and Fog 52 11.1 50 10 93 93 Calm 30.00 1016 4 6 0.00 0.00
11:54 am 11:54 Cloudy with Mist and Fog 52 11.1 50 10 93 93 Calm 29.98 1015 5 8 0.00 0.00
12:54 pm 12:54 Mostly Cloudy 62 16.7 51 10.6 67 67 SW 5 7 29.98 1015 7 11 0.00 0.00
1:54 pm 13:54 Mostly Cloudy 64 17.8 46 7.8 52 52 S 10 17 29.94 1014 10 16 0.00 0.00
2:54 pm 14:54 Mostly Cloudy 64 17.8 45 7.2 50 50 S 10 17 29.93 1014 10 16 0.00 0.00
3:54 pm 15:54 Partly Cloudy 63 17.2 45 7.2 52 52 S 8 13 29.92 1013 10 16 0.00 0.00
4:54 pm 16:54 Partly Cloudy 60 15.6 45 7.2 58 58 SE 5 7 29.92 1013 10 16 0.00 0.00
5:54 pm 17:54 Mostly Clear 56 13.3 46 7.8 70 70 SSE 5 7 29.93 1014 10 16 0.00 0.00
6:54 pm 18:54 Mostly Clear 57 13.9 46 7.8 67 67 SSE 5 7 29.93 1014 10 16 0.00 0.00
7:54 pm 19:54 Partly Cloudy 57 13.9 47 8.3 69 69 S 5 7 29.93 1014 10 16 0.00 0.00
8:54 pm 20:54 Partly Cloudy 57 13.9 46 7.8 67 67 VRB 5 7 29.92 1013 10 16 0.00 0.00
9:54 pm 21:54 Partly Cloudy 57 13.9 46 7.8 67 67 SW 5 7 29.93 1014 10 16 0.00 0.00
10:54 pm 22:54 Cloudy with Light Rain 58 14.4 47 8.3 67 67 SSW 10 17 29.92 1013 7 11 0.00 0.00
11:54 pm 23:54 Mostly Cloudy 57 13.9 47 8.3 69 69 SSW 8 13 29.92 1013 10 16 0.00 0.00

Powered by AerisWeather